Weather History for Fort Knox, KY

Change the Weather History Date:

Saturday, November 3, 2012

  Actual Average Record
Temperature  
Mean Temperature 44 °F -  
Max Temperature 52 °F 59 °F 80 °F (2003)
Min Temperature 37 °F 40 °F 21 °F (1996)
Degree Days  
Heating Degree Days 20    
Moisture  
Dew Point 34 °F    
Average Humidity 72    
Maximum Humidity 85    
Minimum Humidity 53    
Precipitation  
Precipitation 0.01 in - - ()
Sea Level Pressure  
Sea Level Pressure 30.08 in    
Wind  
Wind Speed 6 mph (ENE)    
Max Wind Speed 13 mph    
Max Gust Speed 17 mph    
Visibility 10 miles    
Events Rain    
Averages and records for this station are not official NWS values.
T = Trace of Precipitation, MM = Missing Value Source: NWS Daily Summary

Daily Weather History Graph

Daily Weather History Graph

Search for Another Location

Airport:

Trip Planner

Search our weather history database for the weather conditions in past years. The results will help you decide how hot, cold, wet, or windy it might be!

Date:

Astronomy

Nov. 03, 2012 Rise Set
Actual Time 8:12 AM EDT 6:42 PM EDT
Civil Twilight 7:44 AM EDT 7:09 PM EDT
Nautical Twilight 7:13 AM EDT 7:40 PM EDT
Astronomical Twilight 6:42 AM EDT 8:11 PM EDT
Moon 10:24 PM EDT (11/3) 12:14 PM EDT (11/3)
Length of Visible Light 11h 25m
Length of Day
10h 30m
Waning Gibbous, 80% of the Moon is Illuminated
Nov 3
Waning Gibbous
Nov 6
Last Quarter
Nov 13
New
Nov 20
First Quarter
Nov 28
Full

Hourly Weather History & Observations

Time (EDT) Temp. Windchill Dew Point Humidity Pressure Visibility Wind Dir Wind Speed Gust Speed Precip Events Conditions
12:55 AM 41.2 °F - 30.6 °F 66% 30.08 in 10.0 mi Calm Calm - N/A   Clear
1:55 AM 37.9 °F - 30.7 °F 75% 30.09 in 10.0 mi Calm Calm - N/A   Clear
2:55 AM 37.2 °F 34.7 °F 30.0 °F 75% 30.09 in 10.0 mi ENE 3.5 mph - N/A   Clear
3:55 AM 37.9 °F 32.7 °F 29.7 °F 72% 30.10 in 10.0 mi NE 6.9 mph - N/A   Clear
4:55 AM 38.8 °F 34.6 °F 30.0 °F 71% 30.10 in 10.0 mi ENE 5.8 mph - N/A   Clear
5:55 AM 37.9 °F 32.7 °F 30.2 °F 74% 30.10 in 10.0 mi ENE 6.9 mph - N/A   Clear
6:55 AM 37.9 °F 32.7 °F 30.4 °F 74% 30.10 in 10.0 mi East 6.9 mph - N/A   Scattered Clouds
7:55 AM 38.5 °F 34.1 °F 30.7 °F 74% 30.12 in 10.0 mi ENE 5.8 mph - N/A   Overcast
8:55 AM 40.5 °F 35.8 °F 30.6 °F 68% 30.15 in 10.0 mi ENE 6.9 mph - N/A   Overcast
9:55 AM 41.4 °F 37.6 °F 30.7 °F 66% 30.15 in 10.0 mi East 5.8 mph - N/A   Overcast
10:55 AM 42.3 °F 37.9 °F 31.8 °F 67% 30.13 in 10.0 mi ESE 6.9 mph - N/A   Overcast
11:09 AM 42.8 °F 39.3 °F 32.0 °F 66% 30.12 in 6.0 mi ESE 5.8 mph - N/A Rain Light Rain Showers
11:26 AM 42.8 °F 39.3 °F 33.8 °F 70% 30.11 in 10.0 mi SE 5.8 mph - N/A   Overcast
11:55 AM 43.0 °F 37.7 °F 35.8 °F 76% 30.11 in 10.0 mi ESE 9.2 mph - 0.01 in   Overcast
12:55 PM 45.9 °F 41.7 °F 36.0 °F 68% 30.09 in 10.0 mi East 8.1 mph - N/A   Overcast
1:55 PM 48.6 °F - 36.3 °F 63% 30.07 in 10.0 mi East 8.1 mph - N/A   Overcast
2:55 PM 51.8 °F - 36.9 °F 57% 30.03 in 10.0 mi ENE 9.2 mph - N/A   Overcast
3:55 PM 52.9 °F - 36.1 °F 53% 29.99 in 10.0 mi ENE 11.5 mph - N/A   Mostly Cloudy
4:55 PM 50.2 °F - 35.1 °F 56% 30.01 in 10.0 mi NNE 12.7 mph - N/A   Overcast
5:55 PM 47.5 °F - 38.8 °F 72% 30.03 in 10.0 mi NNE 10.4 mph - N/A   Overcast
6:55 PM 44.6 °F 38.8 °F 39.6 °F 82% 30.03 in 10.0 mi NNE 11.5 mph - N/A   Mostly Cloudy
7:55 PM 44.6 °F 39.2 °F 38.1 °F 78% 30.06 in 10.0 mi NNE 10.4 mph - N/A   Overcast
8:55 PM 43.9 °F 38.3 °F 37.4 °F 78% 30.07 in 10.0 mi NE 10.4 mph - N/A   Overcast
9:55 PM 43.2 °F 37.0 °F 38.5 °F 84% 30.10 in 10.0 mi North 11.5 mph - N/A   Overcast
10:30 PM 42.8 °F 37.0 °F 37.4 °F 81% 30.06 in 10.0 mi NE 10.4 mph - N/A   Overcast
10:43 PM 42.8 °F 37.5 °F 37.4 °F 81% 30.07 in 10.0 mi NE 9.2 mph 17.3 mph N/A   Overcast
10:55 PM 42.4 °F 38.1 °F 37.2 °F 82% 30.09 in 10.0 mi North 6.9 mph - N/A   Overcast
11:55 PM 41.0 °F 34.7 °F 36.9 °F 85% 30.10 in 10.0 mi NNE 10.4 mph - N/A   Overcast